Weather History for KNBT - January, 2013

Change the Weather History Date:

Thursday, January 17, 2013

  Actual Average (KMRH) Record (KMRH)
Temperature  
Mean Temperature 52 °F -  
Max Temperature 60 °F 55 °F 70 °F (1950)
Min Temperature 44 °F 29 °F 9 °F (1977)
Degree Days  
Heating Degree Days 13    
Growing Degree Days 2 (Base 50)    
Moisture  
Dew Point 53 °F    
Average Humidity 96    
Maximum Humidity 100    
Minimum Humidity 88    
Precipitation  
Precipitation 0.54 in - - ()
Sea Level Pressure  
Sea Level Pressure 29.95 in    
Wind  
Wind Speed 9 mph (NNE)    
Max Wind Speed 29 mph    
Max Gust Speed 39 mph    
Visibility 2 miles    
Events Fog , Rain    
Averages and records for this station are not official NWS values.
T = Trace of Precipitation, MM = Missing Value Source: NWS Daily Summary

Daily Weather History Graph

Daily Weather History Graph

Search for Another Location

Airport or City:

Trip Planner

Search our weather history database for the weather conditions in past years. The results will help you decide how hot, cold, wet, or windy it might be!

Date:

Astronomy

Jan. 17, 2013 Rise Set
Actual Time 7:12 AM EST 5:19 PM EST
Civil Twilight 6:45 AM EST 5:47 PM EST
Nautical Twilight 6:14 AM EST 6:18 PM EST
Astronomical Twilight 5:44 AM EST 6:48 PM EST
Moon 10:35 AM EST (1/17) 11:50 PM EST (1/17)
Length of Visible Light 11h 01m
Length of Day
10h 06m
Waxing Crescent, 37% of the Moon is Illuminated
Jan 17
Waxing Crescent
Jan 18
First Quarter
Jan 26
Full
Feb 3
Last Quarter
Feb 10
New

Hourly Weather History & Observations

Time (EST) Temp. Windchill Dew Point Humidity Pressure Visibility Wind Dir Wind Speed Gust Speed Precip Events Conditions
12:56 AM 57.9 °F - 55.9 °F 93% 30.00 in 3.0 mi South 4.6 mph - N/A   Clear
1:10 AM 57.2 °F - 55.4 °F 94% 29.98 in 1.8 mi South 3.5 mph - N/A   Clear
1:21 AM 57.2 °F - 57.2 °F 100% 29.98 in 2.5 mi South 4.6 mph - N/A   Clear
1:29 AM 59.0 °F - 57.2 °F 94% 29.98 in 3.0 mi South 4.6 mph - N/A   Clear
1:56 AM 59.0 °F - 57.0 °F 93% 30.00 in 3.0 mi SSW 5.8 mph - N/A   Clear
2:40 AM 60.8 °F - 57.2 °F 88% 29.99 in 2.5 mi SW 5.8 mph - N/A   Clear
2:47 AM 60.8 °F - 57.2 °F 88% 29.98 in 1.8 mi SW 6.9 mph - N/A   Partly Cloudy
2:54 AM 60.8 °F - 59.0 °F 94% 29.99 in 0.8 mi SW 6.9 mph - N/A   Mist
2:56 AM 60.1 °F - 59.0 °F 96% 30.00 in 0.8 mi SW 6.9 mph - N/A   Mist
2:59 AM 60.8 °F - 59.0 °F 94% 29.98 in 0.5 mi SW 5.8 mph - N/A Fog Fog
3:10 AM 60.8 °F - 59.0 °F 94% 29.98 in 0.2 mi SW 5.8 mph - N/A Fog Fog
3:43 AM 60.8 °F - 59.0 °F 94% 29.97 in 0.5 mi SW 4.6 mph - N/A Fog Fog
3:56 AM 60.1 °F - 59.0 °F 96% 29.99 in 0.5 mi SSW 5.8 mph - N/A Fog Fog
4:05 AM 60.8 °F - 59.0 °F 94% 29.97 in 0.2 mi SW 5.8 mph - N/A Fog Fog
4:20 AM 60.8 °F - 59.0 °F 94% 29.97 in 0.5 mi WSW 4.6 mph - N/A Fog Fog
4:56 AM 60.1 °F - 59.0 °F 96% 29.98 in 0.2 mi SW 3.5 mph - 0.01 in Fog Fog
5:33 AM 59.0 °F - 57.2 °F 94% 29.96 in 0.2 mi Calm Calm - N/A Fog Fog
5:56 AM 59.0 °F - 57.9 °F 96% 29.98 in 0.2 mi Calm Calm - N/A Fog Fog
6:22 AM 59.0 °F - 57.2 °F 94% 29.97 in 0.5 mi Calm Calm - N/A Fog Fog
6:36 AM 57.2 °F - 57.2 °F 100% 29.97 in 0.2 mi Calm Calm - N/A Fog Fog
6:56 AM 57.9 °F - 57.0 °F 97% 29.99 in 0.2 mi SE 3.5 mph - N/A Fog Fog
7:27 AM 57.2 °F - 57.2 °F 100% 29.98 in 0.2 mi Calm Calm - N/A Fog Fog
7:56 AM 57.9 °F - 57.0 °F 97% 30.00 in 0.2 mi Calm Calm - N/A Fog Fog
8:23 AM 57.2 °F - 57.2 °F 100% 30.00 in 0.2 mi NNE 4.6 mph - N/A Fog Fog
8:52 AM 57.2 °F - 57.2 °F 100% 30.01 in 0.2 mi Calm Calm - N/A Fog Fog
8:56 AM 59.0 °F - 57.9 °F 96% 30.02 in 0.2 mi NE 3.5 mph - N/A Fog Fog
9:56 AM 57.9 °F - 57.0 °F 97% 30.02 in 0.2 mi NE 4.6 mph - N/A Fog Fog
10:56 AM 55.9 °F - 55.0 °F 97% 30.00 in 0.2 mi NE 9.2 mph - N/A Fog Fog
11:06 AM 55.4 °F - 55.4 °F 100% 29.99 in 0.2 mi ENE 11.5 mph - N/A Fog Fog
11:26 AM 55.4 °F - 53.6 °F 94% 29.99 in 0.2 mi ENE 10.4 mph - N/A Fog Fog
11:56 AM 55.0 °F - 54.0 °F 96% 29.98 in 0.5 mi NE 12.7 mph - N/A Fog Fog
12:20 PM 55.4 °F - 53.6 °F 94% 29.96 in 0.8 mi NE 13.8 mph - N/A   Mist
12:29 PM 55.4 °F - 53.6 °F 94% 29.96 in 1.0 mi NNE 13.8 mph - N/A   Overcast
12:56 PM 54.0 °F - 53.1 °F 97% 29.97 in 1.5 mi NE 16.1 mph - N/A   Overcast
1:15 PM 53.6 °F - 53.6 °F 100% 29.95 in 2.0 mi NE 15.0 mph - N/A   Overcast
1:27 PM 53.6 °F - 53.6 °F 100% 29.95 in 1.8 mi ENE 15.0 mph 23.0 mph N/A   Overcast
1:56 PM 54.0 °F - 53.1 °F 97% 29.96 in 1.8 mi NE 16.1 mph 21.9 mph N/A   Overcast
2:22 PM 53.6 °F - 51.8 °F 94% 29.93 in 2.5 mi NE 19.6 mph 26.5 mph N/A   Overcast
2:56 PM 53.1 °F - 51.1 °F 93% 29.95 in 2.5 mi NE 19.6 mph 27.6 mph N/A   Overcast
3:56 PM 51.1 °F - 50.0 °F 96% 29.94 in 4.0 mi NE 18.4 mph 29.9 mph N/A   Overcast
4:31 PM 50.0 °F - 48.2 °F 94% 29.92 in 8.0 mi NE 21.9 mph 29.9 mph N/A   Overcast
4:56 PM 50.0 °F - 48.9 °F 96% 29.95 in 9.0 mi NE 20.7 mph 29.9 mph N/A   Overcast
5:56 PM 50.0 °F - 48.9 °F 96% 29.91 in 10.0 mi NE 23.0 mph 31.1 mph 0.02 in   Overcast
6:56 PM 50.0 °F - 48.9 °F 96% 29.91 in 10.0 mi NNE 21.9 mph 31.1 mph N/A   Overcast
7:56 PM 50.0 °F - 48.0 °F 93% 29.84 in 3.0 mi NNE 21.9 mph 32.2 mph 0.03 in Rain Rain
8:56 PM 48.9 °F - 48.0 °F 97% 29.86 in 4.0 mi NNE 20.7 mph 29.9 mph 0.05 in Rain Light Rain
9:10 PM 48.2 °F - 48.2 °F 100% 29.84 in 5.0 mi NNE 23.0 mph 28.8 mph 0.01 in Rain Light Rain
9:20 PM 48.2 °F - 48.2 °F 100% 29.83 in 3.0 mi North 23.0 mph 31.1 mph 0.05 in Rain Heavy Rain
9:29 PM 48.2 °F - 48.2 °F 100% 29.84 in 2.5 mi North 16.1 mph 27.6 mph 0.10 in Rain Heavy Rain
9:36 PM 48.2 °F - 48.2 °F 100% 29.83 in 4.0 mi North 19.6 mph 31.1 mph 0.12 in Rain Rain
9:55 PM 48.0 °F - 46.9 °F 96% 29.85 in 2.5 mi North 21.9 mph 32.2 mph 0.22 in Rain Heavy Rain
10:05 PM 46.4 °F 38.1 °F 46.4 °F 100% 29.83 in 3.0 mi North 24.2 mph 32.2 mph 0.05 in Rain Rain
10:29 PM 46.4 °F 38.3 °F 46.4 °F 100% 29.88 in 5.0 mi North 23.0 mph 32.2 mph 0.07 in   Overcast
10:48 PM 46.4 °F 37.9 °F 44.6 °F 93% 29.90 in 3.0 mi NNW 25.3 mph 32.2 mph 0.13 in Rain Heavy Rain
10:56 PM 46.0 °F 37.8 °F 45.0 °F 96% 29.92 in 4.0 mi NNW 23.0 mph 39.1 mph 0.15 in Rain Light Rain
11:08 PM 46.4 °F 37.4 °F 44.6 °F 93% 29.90 in 4.0 mi North 28.8 mph 39.1 mph 0.03 in   Overcast
11:52 PM 44.6 °F 35.9 °F 42.8 °F 93% 29.91 in 10.0 mi North 23.0 mph 38.0 mph 0.06 in   Overcast
11:56 PM 45.0 °F 35.6 °F 44.1 °F 97% 29.93 in 10.0 mi North 27.6 mph 39.1 mph 0.06 in   Overcast